This demonstration page uses our WeatherBlox Daily Observations layout. Learn more.

Left ArrowRight Arrow

Hourly Observations for January 13, 2017

Temp ( °F °C ) Dew Point ( °F °C ) Humidity (%) Winds ( mph kmh ) Pressure ( in mb ) Visibility ( mi km ) Precip ( " mm )
12:16 am 00:16 Cloudy 59 15 55 13 88 88 W 3 6 30.21 1023 10 16.0934 0 0
12:36 am 00:36 Cloudy 61 16 55 13 83 83 Calm 30.21 1023 10 16.0934 0 0
12:56 am 00:56 Cloudy 59 15 55 13 88 88 Calm 30.21 1023 10 16.0934 0 0
1:16 am 01:16 Cloudy 61 16 57 14 88 88 W 9 15 30.21 1023 10 16.0934 0 0
1:36 am 01:36 Cloudy 61 16 57 14 88 88 W 6 9 30.21 1023 10 16.0934 0 0
1:56 am 01:56 Cloudy 63 17 57 14 83 83 W 5 7 30.21 1023 10 16.0934 0 0
2:16 am 02:16 Cloudy 61 16 57 14 88 88 Calm 30.24 1024 10 16.0934 0 0
2:35 am 02:35 Cloudy 61 16 57 14 88 88 NW 8 13 30.24 1024 10 16.0934 0 0
2:56 am 02:56 Cloudy 61 16 57 14 88 88 WNW 7 11 30.27 1025 10 16.0934 0 0
3:16 am 03:16 Cloudy 63 17 54 12 73 73 NW 10 17 30.27 1025 10 16.0934 0 0
3:36 am 03:36 Cloudy 61 16 54 12 77 77 NNW 5 7 30.27 1025 10 16.0934 0 0
3:56 am 03:56 Mostly Cloudy 61 16 54 12 77 77 NNW 5 7 30.27 1025 10 16.0934 0 0
4:16 am 04:16 Partly Cloudy 57 14 54 12 88 88 Calm 30.27 1025 10 16.0934 0 0
4:36 am 04:36 Cloudy 59 15 54 12 82 82 N 3 6 30.3 1026 10 16.0934 0 0
4:56 am 04:56 Cloudy 57 14 54 12 88 88 N 5 7 30.3 1026 10 16.0934 0 0
5:16 am 05:16 Partly Cloudy 57 14 50 10 77 77 N 7 11 30.33 1027 10 16.0934 0 0
5:36 am 05:36 Partly Cloudy 55 13 48 9 77 77 N 12 19 30.33 1027 10 16.0934 0 0
5:56 am 05:56 Mostly Cloudy 55 13 46 8 72 72 N 9 15 30.36 1028 10 16.0934 0 0
6:16 am 06:16 Mostly Cloudy 54 12 46 8 77 77 N 9 15 30.39 1029 10 16.0934 0 0
6:36 am 06:36 Mostly Cloudy 54 12 45 7 72 72 N 13 20 30.42 1030 10 16.0934 0 0
6:56 am 06:56 Partly Cloudy 52 11 45 7 77 77 N 9 15 30.42 1030 10 16.0934 0 0
7:16 am 07:16 Clear 50 10 43 6 76 76 NNW 16 26 30.45 1031 10 16.0934 0 0
7:36 am 07:36 Sunny 48 9 43 6 82 82 N 13 20 30.48 1032 10 16.0934 0 0
7:56 am 07:56 Sunny 48 9 41 5 76 76 N 15 24 30.48 1032 10 16.0934 0 0
8:16 am 08:16 Sunny 48 9 39 4 71 71 N 17 28 30.48 1032 10 16.0934 0 0
8:36 am 08:36 Sunny 46 8 39 4 76 76 NNW 14 22 30.5 1033 10 16.0934 0 0
8:56 am 08:56 Sunny 46 8 39 4 76 76 NNW 15 24 30.53 1034 10 16.0934 0 0
9:16 am 09:16 Sunny 46 8 39 4 76 76 NNW 13 20 30.53 1034 10 16.0934 0 0
9:36 am 09:36 Sunny 46 8 37 3 71 71 NNW 16 26 30.53 1034 10 16.0934 0 0
9:56 am 09:56 Sunny 46 8 37 3 71 71 NNW 17 28 30.53 1034 10 16.0934 0 0
10:16 am 10:16 Sunny 46 8 37 3 71 71 N 14 22 30.53 1034 10 16.0934 0 0
10:36 am 10:36 Sunny 46 8 37 3 71 71 N 12 19 30.53 1034 10 16.0934 0 0
10:54 am 10:54 Sunny 46 8 36 2 66 66 NNW 18 30 30.53 1034 10 16.0934 0 0
11:14 am 11:14 Sunny 46 8 36 2 66 66 NW 15 24 30.53 1034 10 16.0934 0 0
11:34 am 11:34 Sunny 46 8 36 2 66 66 NNW 18 30 30.53 1034 10 16.0934 0 0
11:54 am 11:54 Sunny 48 9 36 2 62 62 NNW 24 39 30.53 1034 10 16.0934 0 0
12:14 pm 12:14 Sunny 50 10 36 2 58 58 NNW 20 31 30.53 1034 10 16.0934 0 0
12:34 pm 12:34 Sunny 52 11 36 2 54 54 NNW 16 26 30.53 1034 10 16.0934 0 0
12:54 pm 12:54 Sunny 52 11 34 1 50 50 N 10 17 30.53 1034 10 16.0934 0 0
1:14 pm 13:14 Sunny 52 11 34 1 50 50 NNW 21 33 30.53 1034 10 16.0934 0 0
1:34 pm 13:34 Sunny 52 11 32 0 47 47 N 17 28 30.53 1034 10 16.0934 0 0
1:54 pm 13:54 Sunny 52 11 30 -1 44 44 N 15 24 30.53 1034 10 16.0934 0 0
2:14 pm 14:14 Sunny 52 11 30 -1 44 44 N 13 20 30.53 1034 10 16.0934 0 0
2:34 pm 14:34 Sunny 52 11 28 -2 41 41 N 13 20 30.53 1034 10 16.0934 0 0
2:54 pm 14:54 Sunny 52 11 28 -2 41 41 NNW 12 19 30.53 1034 10 16.0934 0 0
3:14 pm 15:14 Sunny 50 10 27 -3 40 40 NNW 21 33 30.53 1034 10 16.0934 0 0
3:34 pm 15:34 Sunny 50 10 28 -2 43 43 N 16 26 30.53 1034 10 16.0934 0 0
4:14 pm 16:14 Sunny 48 9 28 -2 46 46 N 10 17 30.56 1035 10 16.0934 0 0
4:34 pm 16:34 Sunny 48 9 28 -2 46 46 NNW 16 26 30.59 1036 10 16.0934 0 0
4:54 pm 16:54 Sunny 48 9 28 -2 46 46 N 10 17 30.59 1036 10 16.0934 0 0
5:15 pm 17:15 Clear 48 9 28 -2 46 46 N 10 17 30.59 1036 10 16.0934 0 0
5:34 pm 17:34 Clear 46 8 28 -2 50 50 N 10 17 30.59 1036 10 16.0934 0 0
5:54 pm 17:54 Clear 46 8 28 -2 50 50 N 9 15 30.62 1037 10 16.0934 0 0
6:14 pm 18:14 Clear 46 8 28 -2 50 50 N 9 15 30.62 1037 10 16.0934 0 0
6:34 pm 18:34 Clear 46 8 27 -3 46 46 N 8 13 30.62 1037 10 16.0934 0 0
6:54 pm 18:54 Clear 45 7 27 -3 49 49 N 10 17 30.65 1038 10 16.0934 0 0
7:14 pm 19:14 Clear 45 7 27 -3 49 49 N 9 15 30.62 1037 10 16.0934 0 0
7:34 pm 19:34 Clear 45 7 27 -3 49 49 NNE 5 7 30.65 1038 10 16.0934 0 0
7:54 pm 19:54 Clear 45 7 27 -3 49 49 N 10 17 30.65 1038 10 16.0934 0 0
8:15 pm 20:15 Partly Cloudy 45 7 25 -4 46 46 N 8 13 30.65 1038 10 16.0934 0 0
8:34 pm 20:34 Clear 45 7 25 -4 46 46 N 6 9 30.65 1038 10 16.0934 0 0
8:54 pm 20:54 Clear 43 6 25 -4 49 49 N 10 17 30.65 1038 10 16.0934 0 0
9:15 pm 21:15 Clear 43 6 25 -4 49 49 NNE 7 11 30.65 1038 10 16.0934 0 0
9:34 pm 21:34 Partly Cloudy 43 6 25 -4 49 49 N 7 11 30.68 1039 10 16.0934 0 0
9:54 pm 21:54 Mostly Cloudy 43 6 27 -3 53 53 NW 3 6 30.68 1039 10 16.0934 0 0
10:14 pm 22:14 Cloudy 43 6 27 -3 53 53 NNW 6 9 30.68 1039 10 16.0934 0 0
10:34 pm 22:34 Cloudy 43 6 27 -3 53 53 N 6 9 30.68 1039 10 16.0934 0 0
10:54 pm 22:54 Cloudy 43 6 27 -3 53 53 N 3 6 30.68 1039 10 16.0934 0 0
11:14 pm 23:14 Cloudy 43 6 27 -3 53 53 N 7 11 30.68 1039 10 16.0934 0 0
11:34 pm 23:34 Cloudy 43 6 27 -3 53 53 NNE 5 7 30.68 1039 10 16.0934 0 0
11:54 pm 23:54 Cloudy 43 6 27 -3 53 53 NNE 6 9 30.68 1039 10 16.0934 0 0

Powered by AerisWeather